Bundaberg, Queensland

1:48 AM AEST on September 27, 2016 (GMT +1000)
Bundaberg

Weather History for 94387 - April, 2014

Change the Weather History Date:

Saturday, April 12, 2014

  Actual Average Record
Temperature  
Mean Temperature 76 °F -  
Max Temperature 86 °F - - ()
Min Temperature 67 °F - - ()
Cooling Degree Days 12    
Growing Degree Days 26 (Base 50)    
Moisture  
Dew Point 68 °F    
Average Humidity 78    
Maximum Humidity 100    
Minimum Humidity 38    
Precipitation  
Precipitation 0.00 in - - ()
Sea Level Pressure  
Sea Level Pressure 29.83 in    
Wind  
Wind Speed 6 mph ()    
Max Wind Speed 15 mph    
Max Gust Speed -    
Visibility 6.1 miles    
Events      
T = Trace of Precipitation, MM = Missing Value Source: Averaged Metar Reports

Daily Weather History Graph

Daily Weather History Graph

Search for Another Location

Airport or City:

Trip Planner

Search our weather history database for the weather conditions in past years. The results will help you decide how hot, cold, wet, or windy it might be!

Date:

Astronomy

Apr. 12, 2014 Rise Set
Actual Time 6:03 AM AEST 5:38 PM AEST
Civil Twilight 5:40 AM AEST 6:01 PM AEST
Nautical Twilight 5:14 AM AEST 6:28 PM AEST
Astronomical Twilight 4:47 AM AEST 6:55 PM AEST
Moon 3:36 PM AEST (4/12) 3:01 AM AEST (4/12)
Length of Visible Light 12h 21m
Length of Day
11h 35m
Waxing Gibbous, 89% of the Moon is Illuminated
Apr 12
Waxing Gibbous
Apr 15
Full
Apr 22
Last Quarter
Apr 29
New
May 7
First Quarter

Hourly Weather History & Observations

Time (AEST) Temp. Heat Index Dew Point Humidity Pressure Visibility Wind Dir Wind Speed Gust Speed Precip Events Conditions
12:00 AM 70 °F - 68 °F 90% 29.84 in - NNW 6.9 mph - -  
12:00 AM 69.8 °F - 68.0 °F 94% 29.83 in 6.2 mi NNW 6.9 mph - N/A   Unknown
1:00 AM 71.6 °F - 68.0 °F 88% 29.83 in 6.2 mi NW 8.1 mph - N/A   Unknown
2:00 AM 69.8 °F - 68.0 °F 94% 29.80 in 6.2 mi NW 5.8 mph - N/A   Unknown
3:00 AM 69 °F - 67 °F 92% 29.80 in - NNW 6.9 mph - -  
3:00 AM 69.8 °F - 68.0 °F 94% 29.80 in 6.2 mi NNW 6.9 mph - N/A   Unknown
4:00 AM 69.8 °F - 68.0 °F 94% 29.80 in 6.2 mi NNW 6.9 mph - N/A   Unknown
5:00 AM 68.0 °F - 66.2 °F 94% 29.80 in 6.2 mi WNW 4.6 mph - N/A   Unknown
5:35 AM 68.0 °F - 66.2 °F 94% 29.83 in 3.1 mi NW 4.6 mph - N/A   Unknown
5:59 AM 68.0 °F - 68.0 °F 100% 29.83 in 6.2 mi WNW 2.3 mph - N/A   Unknown
6:00 AM 69 °F - 67 °F 92% 29.83 in - WNW 2.3 mph - -  
6:00 AM 68.0 °F - 68.0 °F 100% 29.83 in 6.2 mi WNW 2.3 mph - N/A   Unknown
7:00 AM 71.6 °F - 69.8 °F 94% 29.86 in 6.2 mi NW 3.5 mph - N/A   Unknown
9:00 AM 80 °F - 71 °F 66% 29.89 in - NW 8.1 mph - -  
9:00 AM 80.6 °F 83.9 °F 69.8 °F 70% 29.89 in 6.2 mi NW 8.1 mph - N/A   Scattered Clouds
10:00 AM 82.4 °F 86.3 °F 69.8 °F 66% 29.89 in 6.2 mi North 9.2 mph - N/A   Mostly Cloudy
11:00 AM 84.2 °F 87.3 °F 68.0 °F 58% 29.86 in 6.2 mi NNW 9.2 mph - N/A   Unknown
12:00 PM 84 °F - 69 °F 52% 29.85 in - North 11.5 mph - -  
12:00 PM 84.2 °F 88.4 °F 69.8 °F 62% 29.83 in 6.2 mi North 11.5 mph - N/A   Unknown
1:00 PM 84.2 °F 86.6 °F 66.2 °F 55% 29.83 in 6.2 mi North 10.4 mph - N/A   Unknown
2:00 PM 86.0 °F 89.4 °F 68.0 °F 55% 29.80 in 6.2 mi North 10.4 mph - N/A   Unknown
3:00 PM 84 °F - 62 °F 38% 29.79 in - North 13.8 mph - -  
3:00 PM 84.2 °F 85.0 °F 62.6 °F 48% 29.80 in 6.2 mi North 13.8 mph - N/A   Unknown
4:00 PM 82.4 °F 83.9 °F 64.4 °F 54% 29.80 in 6.2 mi North 15.0 mph - N/A   Unknown
5:00 PM 78.8 °F - 68.0 °F 69% 29.80 in 6.2 mi North 11.5 mph - N/A   Unknown
6:00 PM 77 °F - 70 °F 73% 29.81 in - North 10.4 mph - -  
6:00 PM 77.0 °F - 69.8 °F 78% 29.80 in 6.2 mi North 10.4 mph - N/A   Unknown
7:00 PM 75.2 °F - 71.6 °F 89% 29.83 in 6.2 mi North 6.9 mph - N/A   Unknown
9:00 PM 75 °F - 71 °F 85% 29.88 in - North 5.8 mph - -  
9:00 PM 75.2 °F - 71.6 °F 89% 29.89 in 6.2 mi North 5.8 mph - N/A   Unknown
10:00 PM 73.4 °F - 69.8 °F 88% 29.89 in 6.2 mi Calm Calm - N/A   Unknown
11:00 PM 71.6 °F - 69.8 °F 94% 29.86 in 6.2 mi Calm Calm - N/A   Scattered Clouds